Lexington Weather

Lexington, Massachusetts, USA

27°F
12/12/2019 4:43pm 
  • Lexington Conditions: Partly cloudy
  • Temperature: 27.0°F / -2.8°CColder 1.8°F than last hour.
  • Dew Point: 19.4°FDecreased 0.5°Fsince last hour.
  • Relative Humidity: 73%Increased 4.0% since last hour.
  • Wind: Wind from WSW WSW 1 mph, 10-min avg: 1 mph, gust: 2 mph
  • Barometer: 30.66 in Steady
  • Visibility: 10 miles
  • Snow Today: 0.0 in
  •   

Regional Weather Roundup
for Boston / Norton, MA

        
000
ASUS41 KBOX 100510
RWRBOX

REGIONAL WEATHER ROUNDUP
NATIONAL WEATHER SERVICE BOSTON/NORTON MA
1200 AM EST TUE DEC 10 2019

NOTE:  "FAIR" INDICATES FEW OR NO CLOUDS BELOW 12,000 FEET WITH NO 
SIGNIFICANT WEATHER AND/OR OBSTRUCTIONS TO VISIBILITY.

MAZALL-100600-
EASTERN MASSACHUSETTS
  
CITY           SKY/WX    TMP DP  RH WIND       PRES   REMARKS
BOSTON         LGT RAIN  60  54  80 SW17G25   29.66F                  
BEVERLY        LGT RAIN  59  55  87 SW16G25   29.64F                  
LAWRENCE       LGT RAIN  54  52  93 S12G21    29.66F                  
BEDFORD        LGT RAIN  56  52  86 S14       29.65F                  
BLUE HILL        N/A     56  55  97 S24G37    29.66F                  
NORWOOD        LGT RAIN  62  55  77 SW15G23   29.68S                  
MARSHFIELD     CLOUDY    61  61 100 SW18G32   29.69F FOG              
PLYMOUTH       LGT RAIN  58  57  97 SW16G28   29.72F                  
TAUNTON        LGT RAIN  60  56  86 SW20G32   29.72F                  
NEW BEDFORD    LGT RAIN  59 N/A N/A SW26G37   29.72F                  
$$

MAZALL-100600-
CAPE COD AND THE ISLANDS
  
CITY           SKY/WX    TMP DP  RH WIND       PRES   REMARKS
FALMOUTH       RAIN      57  57 100 SW28G40   29.76F                  
HYANNIS        HVY RAIN  56  53  90 S18G26    29.75F FOG              
CHATHAM        LGT RAIN  53  53 100 SW14G28   29.78F FOG              
PROVINCETOWN   RAIN      54  54 100 S22G29    29.73F FOG              
NANTUCKET      LGT RAIN  54  52  93 S23G32    29.81F                  
MARTHAS VNYRD  RAIN      57  56  96 S26G39    29.77F FOG              
$$
 
MAZALL-100600-
CENTRAL AND WESTERN MASSACHUSETTS
  
CITY           SKY/WX    TMP DP  RH WIND       PRES   REMARKS
WORCESTER      LGT RAIN  51  50  96 SW17      29.67F                  
FITCHBURG      NOT AVBL                                               
ORANGE         LGT RAIN  50  47  89 S14G23    29.65S                  
SPRINGFIELD    FOG       48  48 100 S10       29.66S VSB 5/8          
WESTFIELD      CLOUDY    50  48  93 S10       29.66F                  
NORTH ADAMS    CLOUDY    50  45  83 W10G22    29.64R                  
PITTSFIELD     CLOUDY    48  45  89 S8G21     29.64S                  
$$
 
RIZALL-100600-
RHODE ISLAND
  
CITY           SKY/WX    TMP DP  RH WIND       PRES   REMARKS
PROVIDENCE     LGT RAIN  59  57  93 SW20G33   29.72F                  
NEWPORT        LGT RAIN  58  56  93 SW20G32   29.74S FOG              
BLOCK ISLAND   LGT RAIN  55  55 100 SW24G31   29.76F FOG              
SMITHFIELD     LGT RAIN  56  55  97 SW10G18   29.70F                  
WESTERLY       LGT RAIN  58  53  84 SW12      29.76S                  
$$
 
CTZALL-100600-
CONNECTICUT
  
CITY           SKY/WX    TMP DP  RH WIND       PRES   REMARKS
BRADLEY INTL   LGT RAIN  48  47  96 S10       29.67F                  
HARTFORD       CLOUDY    55  52  89 S12       29.70S                  
BRIDGEPORT     LGT RAIN  52  50  93 SW14      29.73F                  
DANBURY        LGT RAIN  52  50  93 SW16      29.73R                  
GROTON         LGT RAIN  53  53 100 SW18      29.74S                  
NEW HAVEN      CLOUDY    52  50  93 SW5       29.74S                  
CHESTER        LGT RAIN  55  55 100 SW7G23    29.73S                  
MERIDEN        CLOUDY    55  51  86 S14G23    29.72S                  
WILLIMANTIC    LGT RAIN  56  54  93 SW13G21   29.72S                  
OXFORD         LGT RAIN  52  51  97 SW8       29.72S                  
$$

MEZ002-015-021-024-NHZ003-005-008-011-012-014-VTZ005-008-100600-
NORTHERN NEW ENGLAND
  
CITY           SKY/WX    TMP DP  RH WIND       PRES   REMARKS
PORTLAND ME    LGT RAIN  52  49  89 S9        29.61F FOG              
BANGOR ME      LGT RAIN  52  51  97 S17G26    29.57F                  
CONCORD NH     LGT RAIN  47  46  97 SE6       29.62S FOG              
MANCHESTER NH  LGT RAIN  51  50  96 S9        29.62F                  
NASHUA NH      LGT RAIN  52  52 100 VRB3      29.64F FOG              
PORTSMOUTH NH  LGT RAIN  52  52 100 S9        29.61F                  
JAFFREY NH     LGT RAIN  50  48  93 S9G21     29.63F                  
KEENE NH       LGT RAIN  48  47  96 S8        29.63F                  
BURLINGTON VT  MOCLDY    49  44  83 S21G31    29.50S                  
MT. WASHINGTON LGT RAIN  34  34 100 SW62G78     N/A  VSB 0   WCI  15  
$$

NYZ052-076-100600-
EASTERN NEW YORK
  
CITY           SKY/WX    TMP DP  RH WIND       PRES   REMARKS
ALBANY         CLOUDY    47  43  86 S12       29.63S                  
NEW YORK CITY  LGT RAIN  56  51  84 SW18G35   29.74S                  
$$
 
ANZALL-100600-
MARINE OBSERVATIONS
  
STATION/POSITION TIME  TEMP    WIND        PRES    VSBY  WAVE
                       AIR SEA DIR/SP/G                  HT/PER
                 (UTC) (F)     (DEG/KT/KT) (MB)    (MI)  (FT/S)
BOSTON BUOY      0450   57 48  190/ 23/ 33 1003.6F         4/ 5
BUZZARDS BAY     0400   56     200/ 36/ 39 1006.6F
NANTUCKET SOUND  0440   51 43              1008.5F
MASS BAY-STELLWA 0404   51 46  210/ 16/ 17 1003.1F  1 7/8  4/ 5
ISLE OF SHOALS   0400   51     180/ 20/ 22 1003.8F
S OF BLOCK IS    0500      52                N/A          12/ 9
$$

......................KEY.........................
  SKY/WX - SKY CONDITION/PRESENT WEATHER
  TMP    - TEMPERATURE IN FAHRENHEIT
  DWPT   - DEWPOINT IN FAHRENHEIT
  RH     - RELATIVE HUMIDITY IN PERCENT
  WIND   - DIRECTION AND SPEED IN MPH
  PRES   - MEAN SEA LEVEL PRESSURE IN INCHES OF HG
  WCI    - WIND CHILL INDEX
  VSB    - VISIBILITY IN MILES
  HX     - HEAT INDEX
  TC     - TEMPERATURE IN CELSIUS
  VRB    - VARIABLE WIND DIRECTION
  N/A    - NOT AVAILABLE
  
      

Other recent Regional Weather Roundups

Thu Dec 12, 4:10pm

Thu Dec 12, 4:01pm

Thu Dec 12, 3:10pm

Thu Dec 12, 3:00pm

Thu Dec 12, 2:10pm

Thu Dec 12, 2:01pm

Thu Dec 12, 1:10pm

Thu Dec 12, 1:00pm

Thu Dec 12, 12:10pm

Thu Dec 12, 12:00pm

Thu Dec 12, 11:10am

Thu Dec 12, 11:00am

Thu Dec 12, 10:10am

Thu Dec 12, 8:10am

Thu Dec 12, 8:00am

Thu Dec 12, 7:10am

Thu Dec 12, 7:00am

Thu Dec 12, 6:10am

Thu Dec 12, 6:00am

Thu Dec 12, 5:10am

Thu Dec 12, 5:00am

Thu Dec 12, 4:10am

Thu Dec 12, 4:00am

Thu Dec 12, 3:10am

Thu Dec 12, 3:00am

Thu Dec 12, 2:10am

Thu Dec 12, 2:00am

Thu Dec 12, 1:10am

Thu Dec 12, 1:00am

Thu Dec 12, 12:10am

Thu Dec 12, 12:00am

Wed Dec 11, 11:10pm

Wed Dec 11, 11:00pm

Wed Dec 11, 10:10pm

Wed Dec 11, 10:00pm

Wed Dec 11, 9:10pm

Wed Dec 11, 9:00pm

Wed Dec 11, 8:10pm

Wed Dec 11, 8:00pm

Wed Dec 11, 7:10pm

Wed Dec 11, 7:00pm

Wed Dec 11, 6:10pm

Wed Dec 11, 6:00pm

Wed Dec 11, 5:10pm

Wed Dec 11, 5:01pm

Wed Dec 11, 4:10pm

Wed Dec 11, 4:00pm

Wed Dec 11, 3:10pm

Wed Dec 11, 3:01pm

Wed Dec 11, 2:10pm

Wed Dec 11, 2:00pm

Wed Dec 11, 1:10pm

Wed Dec 11, 1:00pm

Wed Dec 11, 12:10pm

Wed Dec 11, 12:00pm

Wed Dec 11, 11:10am

Wed Dec 11, 11:00am

Wed Dec 11, 10:10am

Wed Dec 11, 10:00am

Wed Dec 11, 9:10am

Wed Dec 11, 9:00am

Wed Dec 11, 8:10am

Wed Dec 11, 8:00am

Wed Dec 11, 7:10am

Wed Dec 11, 7:00am

Wed Dec 11, 6:10am

Wed Dec 11, 6:00am

Wed Dec 11, 5:10am

Wed Dec 11, 5:00am

Wed Dec 11, 4:10am

Wed Dec 11, 4:00am

Wed Dec 11, 3:10am

Wed Dec 11, 3:01am

Wed Dec 11, 2:10am

Wed Dec 11, 2:01am

Wed Dec 11, 1:10am

Wed Dec 11, 1:00am

Wed Dec 11, 12:10am

Wed Dec 11, 12:00am

Tue Dec 10, 11:10pm

Tue Dec 10, 11:00pm

Tue Dec 10, 10:10pm

Tue Dec 10, 10:00pm

Tue Dec 10, 9:10pm

Tue Dec 10, 9:01pm

Tue Dec 10, 8:10pm

Tue Dec 10, 8:00pm

Tue Dec 10, 7:10pm

Tue Dec 10, 7:01pm

Tue Dec 10, 6:10pm

Tue Dec 10, 6:01pm

Tue Dec 10, 5:10pm

Tue Dec 10, 5:00pm

Tue Dec 10, 4:10pm

Tue Dec 10, 4:01pm

Tue Dec 10, 3:10pm

Tue Dec 10, 3:01pm

Tue Dec 10, 2:10pm

Tue Dec 10, 2:01pm

Tue Dec 10, 1:10pm

Tue Dec 10, 1:00pm

Tue Dec 10, 12:10pm

Tue Dec 10, 12:00pm

Tue Dec 10, 11:10am

Tue Dec 10, 11:00am

Tue Dec 10, 10:10am

Tue Dec 10, 10:00am

Tue Dec 10, 9:10am

Tue Dec 10, 9:01am

Tue Dec 10, 8:10am

Tue Dec 10, 8:00am

Tue Dec 10, 7:10am

Tue Dec 10, 7:00am

Tue Dec 10, 6:10am

Tue Dec 10, 6:00am

Tue Dec 10, 5:10am

Tue Dec 10, 5:00am

Tue Dec 10, 4:10am

Tue Dec 10, 4:00am

Tue Dec 10, 3:10am

Tue Dec 10, 3:00am

Tue Dec 10, 2:10am

Tue Dec 10, 2:01am

Tue Dec 10, 1:10am

Tue Dec 10, 1:00am

Tue Dec 10, 12:01am

Mon Dec 9, 11:10pm

Mon Dec 9, 11:01pm

Mon Dec 9, 10:10pm

Mon Dec 9, 10:00pm

Mon Dec 9, 9:10pm

Mon Dec 9, 9:01pm

Mon Dec 9, 8:10pm

Mon Dec 9, 8:01pm

Mon Dec 9, 7:10pm

Mon Dec 9, 7:00pm

Mon Dec 9, 6:10pm

Mon Dec 9, 6:00pm

Mon Dec 9, 5:10pm

Mon Dec 9, 5:01pm

Meta data:

ID: 2ff9b97e-de56-49f8-801b-db3145ae41ea
Link: https://api.weather.gov/products/2ff9b97e-de56-49f8-801b-db3145ae41ea